• în România
  • Lista ţărilor
  • Pe 7 zile
  • Temperatura apei
  • Hartă satelitară
  • Meteo pe hartă
  • Widget-uri
  • user-avatar
    Intrare

    Meteo pe oră la Igls

    Astăzi, 18 Decembrie, Luni

    Timp Temperatura Precipitaţii Vânt Presiune Umiditate
    00:00 -10°C° 0 mm 2 m/s 687 mmHg 91%
    01:00 -9°C° 0 mm 2 m/s 687 mmHg 91%
    02:00 -9°C° 0 mm 2 m/s 686 mmHg 90%
    03:00 -10°C° 0 mm 2 m/s 686 mmHg 89%
    04:00 -10°C° 0 mm 2 m/s 686 mmHg 89%
    05:00 -10°C° 0 mm 2 m/s 686 mmHg 85%
    06:00 -9°C° 0 mm 1 m/s 686 mmHg 82%
    07:00 -8°C° 0 mm 2 m/s 685 mmHg 80%
    08:00 -6°C° 0 mm 1 m/s 685 mmHg 80%
    09:00 -4°C° 0 mm 1 m/s 686 mmHg 79%
    10:00 -3°C° 0 mm 1 m/s 686 mmHg 78%
    11:00 -2°C° 0,1 mm 1 m/s 686 mmHg 77%
    12:00 -1°C° 0,1 mm 1 m/s 686 mmHg 75%
    13:00 0°C° 0 mm 1 m/s 685 mmHg 72%
    14:00 -1°C° 0,1 mm 1 m/s 686 mmHg 77%
    15:00 -2°C° 0,1 mm 1 m/s 686 mmHg 81%
    16:00 -2°C° 0,1 mm 1 m/s 686 mmHg 85%
    17:00 -3°C° 0,1 mm 1 m/s 686 mmHg 86%
    18:00 -4°C° 0,1 mm 1 m/s 687 mmHg 87%
    19:00 -4°C° 0,1 mm 1 m/s 687 mmHg 88%
    20:00 -4°C° 0 mm 1 m/s 687 mmHg 89%
    21:00 -4°C° 0 mm 1 m/s 688 mmHg 90%
    22:00 -6°C° 0 mm 1 m/s 688 mmHg 91%
    23:00 -6°C° 0 mm 1 m/s 689 mmHg 91%

    Mâine, 19 Decembrie, Marţi

    Timp Temperatura Precipitaţii Vânt Presiune Umiditate
    00:00 -6°C° 0 mm 1 m/s 689 mmHg 91%
    01:00 -6°C° 0 mm 1 m/s 689 mmHg 91%
    02:00 -6°C° 0 mm 1 m/s 689 mmHg 91%
    03:00 -6°C° 0 mm 1 m/s 690 mmHg 91%
    04:00 -6°C° 0 mm 1 m/s 690 mmHg 91%
    05:00 -6°C° 0 mm 1 m/s 690 mmHg 91%
    06:00 -6°C° 0 mm 1 m/s 690 mmHg 90%
    07:00 -7°C° 0 mm 1 m/s 690 mmHg 90%
    08:00 -6°C° 0 mm 1 m/s 691 mmHg 89%
    09:00 -3°C° 0 mm 1 m/s 692 mmHg 88%
    10:00 -2°C° 0 mm 1 m/s 692 mmHg 86%
    11:00 -1°C° 0 mm 1 m/s 692 mmHg 85%
    12:00 0°C° 0 mm 1 m/s 692 mmHg 83%
    13:00 +1°C° 0 mm 1 m/s 692 mmHg 82%
    14:00 0°C° 0 mm 1 m/s 692 mmHg 85%
    15:00 -1°C° 0 mm 1 m/s 692 mmHg 89%
    16:00 -2°C° 0 mm 1 m/s 692 mmHg 93%
    17:00 -3°C° 0 mm 1 m/s 692 mmHg 93%
    18:00 -3°C° 0 mm 1 m/s 692 mmHg 93%
    19:00 -4°C° 0 mm 1 m/s 692 mmHg 93%
    20:00 -4°C° 0,1 mm 1 m/s 692 mmHg 93%
    21:00 -6°C° 0,1 mm 2 m/s 692 mmHg 93%
    22:00 -6°C° 0,1 mm 2 m/s 692 mmHg 93%
    23:00 -6°C° 0,1 mm 2 m/s 692 mmHg 93%

    Poimâine, 20 Decembrie, Miercuri

    Timp Temperatura Precipitaţii Vânt Presiune Umiditate
    00:00 -6°C° 0,1 mm 2 m/s 692 mmHg 93%
    01:00 -6°C° 0,1 mm 2 m/s 692 mmHg 92%
    02:00 -6°C° 0,1 mm 2 m/s 692 mmHg 92%
    03:00 -6°C° 0,1 mm 2 m/s 692 mmHg 92%
    04:00 -6°C° 0,1 mm 2 m/s 692 mmHg 92%
    05:00 -5°C° 0,1 mm 2 m/s 692 mmHg 91%
    06:00 -5°C° 0,1 mm 2 m/s 692 mmHg 91%
    07:00 -5°C° 0,1 mm 2 m/s 692 mmHg 91%
    08:00 -4°C° 0,2 mm 2 m/s 692 mmHg 91%
    09:00 -3°C° 0,2 mm 2 m/s 692 mmHg 90%
    10:00 -2°C° 0,2 mm 2 m/s 692 mmHg 90%
    11:00 -1°C° 0,1 mm 2 m/s 692 mmHg 89%
    12:00 +1°C° 0,1 mm 2 m/s 692 mmHg 89%
    13:00 +2°C° 0,1 mm 2 m/s 692 mmHg 88%
    14:00 +2°C° 0,1 mm 1 m/s 691 mmHg 90%
    15:00 +2°C° 0,1 mm 1 m/s 691 mmHg 92%
    16:00 +1°C° 0,1 mm 1 m/s 691 mmHg 94%
    17:00 -2°C° 0 mm 2 m/s 691 mmHg 94%
    18:00 -3°C° 0 mm 2 m/s 692 mmHg 94%
    19:00 -3°C° 0 mm 2 m/s 692 mmHg 94%
    20:00 -4°C° 0 mm 2 m/s 692 mmHg 93%
    21:00 -4°C° 0 mm 2 m/s 692 mmHg 92%
    22:00 -4°C° 0 mm 2 m/s 692 mmHg 90%
    23:00 -4°C° 0 mm 2 m/s 692 mmHg 89%

    21 Decembrie, Joi

    Timp Temperatura Precipitaţii Vânt Presiune Umiditate
    00:00 -4°C° 0 mm 2 m/s 692 mmHg 88%
    01:00 -4°C° 0 mm 2 m/s 692 mmHg 87%
    02:00 -4°C° 0 mm 2 m/s 692 mmHg 86%
    03:00 -4°C° 0 mm 2 m/s 692 mmHg 85%
    04:00 -3°C° 0 mm 2 m/s 692 mmHg 84%
    05:00 -3°C° 0,5 mm 2 m/s 692 mmHg 86%
    06:00 -2°C° 0,5 mm 2 m/s 692 mmHg 88%
    07:00 -1°C° 0,5 mm 2 m/s 692 mmHg 89%
    08:00 +1°C° 1,3 mm 2 m/s 693 mmHg 91%
    09:00 +2°C° 1,3 mm 2 m/s 693 mmHg 92%
    10:00 +3°C° 1,3 mm 2 m/s 693 mmHg 94%
    11:00 +3°C° 1,2 mm 2 m/s 693 mmHg 95%
    12:00 +4°C° 1,2 mm 2 m/s 692 mmHg 95%
    13:00 +5°C° 1,2 mm 2 m/s 692 mmHg 96%
    14:00 +4°C° 0,7 mm 2 m/s 692 mmHg 96%
    15:00 +4°C° 0,7 mm 2 m/s 692 mmHg 95%
    16:00 +4°C° 0,7 mm 2 m/s 692 mmHg 95%
    17:00 +4°C° 0,8 mm 2 m/s 692 mmHg 95%
    18:00 +4°C° 0,8 mm 2 m/s 692 mmHg 95%
    19:00 +4°C° 0,8 mm 2 m/s 692 mmHg 95%
    20:00 +4°C° 1,4 mm 2 m/s 692 mmHg 95%
    21:00 +4°C° 1,4 mm 2 m/s 692 mmHg 95%
    22:00 +4°C° 1,4 mm 2 m/s 692 mmHg 95%
    23:00 +4°C° 1,3 mm 2 m/s 692 mmHg 95%

    22 Decembrie, Vineri

    Timp Temperatura Precipitaţii Vânt Presiune Umiditate
    00:00 +4°C° 1,3 mm 2 m/s 692 mmHg 96%
    01:00 +5°C° 1,3 mm 2 m/s 692 mmHg 96%
    02:00 +5°C° 1,8 mm 2 m/s 691 mmHg 96%
    03:00 +4°C° 1,8 mm 2 m/s 691 mmHg 96%
    04:00 +4°C° 1,8 mm 2 m/s 691 mmHg 96%
    05:00 +4°C° 1,8 mm 2 m/s 691 mmHg 96%
    06:00 +4°C° 1,8 mm 2 m/s 691 mmHg 96%
    07:00 +4°C° 1,8 mm 2 m/s 692 mmHg 96%
    08:00 +4°C° 0,8 mm 2 m/s 692 mmHg 96%
    09:00 +4°C° 0,8 mm 2 m/s 692 mmHg 96%
    10:00 +4°C° 0,8 mm 2 m/s 692 mmHg 96%
    11:00 +5°C° 0,3 mm 2 m/s 692 mmHg 96%
    12:00 +5°C° 0,3 mm 2 m/s 692 mmHg 96%
    13:00 +5°C° 0,3 mm 2 m/s 691 mmHg 97%
    14:00 +5°C° 0,4 mm 2 m/s 691 mmHg 96%
    15:00 +4°C° 0,4 mm 2 m/s 691 mmHg 96%
    16:00 +4°C° 0,4 mm 2 m/s 691 mmHg 96%
    17:00 +3°C° 0,6 mm 2 m/s 691 mmHg 96%
    18:00 +3°C° 0,6 mm 2 m/s 691 mmHg 96%
    19:00 +2°C° 0,6 mm 2 m/s 691 mmHg 96%
    20:00 +2°C° 0,9 mm 2 m/s 691 mmHg 96%
    21:00 +2°C° 0,9 mm 2 m/s 691 mmHg 96%
    22:00 +1°C° 0,9 mm 2 m/s 691 mmHg 96%
    23:00 +1°C° 1 mm 2 m/s 691 mmHg 96%

    23 Decembrie, Sâmbătă

    Timp Temperatura Precipitaţii Vânt Presiune Umiditate
    00:00 0°C° 1 mm 3 m/s 690 mmHg 96%
    01:00 0°C° 1 mm 3 m/s 690 mmHg 96%
    02:00 -1°C° 1 mm 3 m/s 690 mmHg 96%
    03:00 -1°C° 1 mm 3 m/s 690 mmHg 96%
    04:00 -1°C° 1 mm 3 m/s 689 mmHg 96%
    05:00 -1°C° 0,9 mm 3 m/s 689 mmHg 96%
    06:00 -2°C° 0,9 mm 3 m/s 689 mmHg 95%
    07:00 -2°C° 0,9 mm 3 m/s 689 mmHg 95%
    08:00 -2°C° 0,8 mm 3 m/s 689 mmHg 95%
    09:00 -1°C° 0,8 mm 3 m/s 690 mmHg 94%
    10:00 -1°C° 0,8 mm 3 m/s 690 mmHg 94%
    11:00 -1°C° 0,6 mm 3 m/s 690 mmHg 93%
    12:00 -1°C° 0,6 mm 3 m/s 690 mmHg 92%
    13:00 0°C° 0,6 mm 3 m/s 690 mmHg 91%
    14:00 -1°C° 0,3 mm 3 m/s 690 mmHg 92%
    15:00 -1°C° 0,3 mm 3 m/s 690 mmHg 93%
    16:00 -1°C° 0,3 mm 3 m/s 691 mmHg 93%
    17:00 -2°C° 0,1 mm 3 m/s 691 mmHg 94%
    18:00 -2°C° 0,1 mm 2 m/s 691 mmHg 94%
    19:00 -3°C° 0,1 mm 2 m/s 692 mmHg 94%
    20:00 -4°C° 0 mm 2 m/s 692 mmHg 93%
    21:00 -4°C° 0 mm 2 m/s 692 mmHg 91%
    22:00 -4°C° 0 mm 2 m/s 692 mmHg 90%
    23:00 -4°C° 0 mm 2 m/s 692 mmHg 88%
    Arată mai mult